Time,TemperatureF,DewpointF,PressureIn,WindDirection,WindDirectionDegrees,WindSpeedMPH,WindSpeedGustMPH,Humidity,HourlyPrecipIn,Conditions,Clouds,dailyrainin,SolarRadiationWatts/m^2,SoftwareType,DateUTC
2013-01-07 00:03:00,30.0,28.0,-100.00,West,259,1.0,6.0,92,0.00,,,0.05,1.000000,,2013-01-07 05:03:00,
2013-01-07 00:12:00,30.0,28.0,-100.00,West,259,1.0,6.0,92,0.00,,,0.05,1.000000,,2013-01-07 05:12:00,
2013-01-07 00:22:00,30.0,28.0,-100.00,West,259,1.0,6.0,92,0.00,,,0.05,1.000000,,2013-01-07 05:22:00,
2013-01-07 00:53:00,30.0,28.0,-100.00,WNW,295,1.0,4.0,94,0.00,,,0.05,1.000000,,2013-01-07 05:53:00,
2013-01-07 01:02:00,30.0,28.0,-100.00,WNW,295,1.0,4.0,94,0.00,,,0.05,1.000000,,2013-01-07 06:02:00,
2013-01-07 01:12:00,30.0,28.0,-100.00,WNW,295,1.0,4.0,94,0.00,,,0.05,1.000000,,2013-01-07 06:12:00,
2013-01-07 01:22:00,30.0,28.0,-100.00,WNW,295,1.0,4.0,94,0.00,,,0.05,1.000000,,2013-01-07 06:22:00,
2013-01-07 01:52:00,30.0,28.0,-100.00,WNW,301,2.0,5.0,91,0.00,,,0.05,1.000000,,2013-01-07 06:52:00,
2013-01-07 02:02:00,30.0,28.0,-100.00,WNW,301,2.0,5.0,91,0.00,,,0.05,1.000000,,2013-01-07 07:02:00,
2013-01-07 02:12:00,30.0,28.0,-100.00,WNW,301,2.0,5.0,91,0.00,,,0.05,1.000000,,2013-01-07 07:12:00,
2013-01-07 02:22:00,30.0,28.0,-100.00,WNW,301,2.0,5.0,91,0.00,,,0.05,1.000000,,2013-01-07 07:22:00,
2013-01-07 02:53:00,29.0,25.0,-100.00,WSW,251,0.0,5.0,85,0.00,,,0.05,1.000000,,2013-01-07 07:53:00,
2013-01-07 03:03:00,29.0,25.0,-100.00,WSW,251,0.0,5.0,85,0.00,,,0.05,1.000000,,2013-01-07 08:03:00,
2013-01-07 03:12:00,29.0,25.0,-100.00,WSW,251,0.0,5.0,85,0.00,,,0.05,1.000000,,2013-01-07 08:12:00,
2013-01-07 03:22:00,29.0,25.0,-100.00,WSW,251,0.0,5.0,85,0.00,,,0.05,1.000000,,2013-01-07 08:22:00,
2013-01-07 03:53:00,27.0,24.0,-100.00,NW,317,3.0,4.0,89,0.00,,,0.05,1.000000,,2013-01-07 08:53:00,
2013-01-07 04:02:00,27.0,24.0,-100.00,NW,317,3.0,4.0,89,0.00,,,0.05,1.000000,,2013-01-07 09:02:00,
2013-01-07 04:12:00,27.0,24.0,-100.00,NW,317,3.0,4.0,89,0.00,,,0.05,1.000000,,2013-01-07 09:12:00,
2013-01-07 04:23:00,27.0,24.0,-100.00,NW,317,3.0,4.0,89,0.00,,,0.05,1.000000,,2013-01-07 09:23:00,
2013-01-07 04:53:00,25.0,22.0,-100.00,WNW,289,2.0,5.0,89,0.00,,,0.05,1.000000,,2013-01-07 09:53:00,
2013-01-07 05:02:00,25.0,22.0,-100.00,WNW,289,2.0,5.0,89,0.00,,,0.05,1.000000,,2013-01-07 10:02:00,
2013-01-07 05:12:00,25.0,22.0,-100.00,WNW,289,2.0,5.0,89,0.00,,,0.05,1.000000,,2013-01-07 10:12:00,
2013-01-07 05:22:00,25.0,22.0,-100.00,WNW,289,2.0,5.0,89,0.00,,,0.05,1.000000,,2013-01-07 10:22:00,
2013-01-07 05:53:00,29.0,25.0,-100.00,NNW,335,3.0,6.0,84,0.00,,,0.05,1.000000,,2013-01-07 10:53:00,
2013-01-07 06:02:00,29.0,25.0,-100.00,NNW,335,3.0,6.0,84,0.00,,,0.05,1.000000,,2013-01-07 11:02:00,
2013-01-07 06:12:00,29.0,25.0,-100.00,NNW,335,3.0,6.0,84,0.00,,,0.05,1.000000,,2013-01-07 11:12:00,
2013-01-07 06:23:00,29.0,25.0,-100.00,NNW,335,3.0,6.0,84,0.00,,,0.05,1.000000,,2013-01-07 11:23:00,
2013-01-07 06:53:00,28.0,24.0,-100.00,West,278,2.0,8.0,83,0.00,,,0.05,1.000000,,2013-01-07 11:53:00,
2013-01-07 07:03:00,28.0,24.0,-100.00,West,278,2.0,8.0,83,0.00,,,0.05,1.000000,,2013-01-07 12:03:00,
2013-01-07 07:12:00,28.0,24.0,-100.00,West,278,2.0,8.0,83,0.00,,,0.05,1.000000,,2013-01-07 12:12:00,
2013-01-07 07:23:00,28.0,24.0,-100.00,West,278,2.0,8.0,83,0.00,,,0.05,1.000000,,2013-01-07 12:23:00,
2013-01-07 07:53:00,31.0,25.0,-100.00,NW,318,3.0,8.0,79,0.00,,,0.05,2.000000,,2013-01-07 12:53:00,
2013-01-07 08:03:00,31.0,25.0,-100.00,NW,318,3.0,8.0,79,0.00,,,0.05,2.000000,,2013-01-07 13:03:00,
2013-01-07 08:12:00,31.0,25.0,-100.00,NW,318,3.0,8.0,79,0.00,,,0.05,2.000000,,2013-01-07 13:12:00,
2013-01-07 08:23:00,31.0,25.0,-100.00,NW,318,3.0,8.0,79,0.00,,,0.05,2.000000,,2013-01-07 13:23:00,
2013-01-07 08:53:00,35.0,27.0,-100.00,WNW,293,3.0,5.0,73,0.00,,,0.05,78.000000,,2013-01-07 13:53:00,
2013-01-07 09:03:00,35.0,27.0,-100.00,WNW,293,3.0,5.0,73,0.00,,,0.05,78.000000,,2013-01-07 14:03:00,
2013-01-07 09:13:00,35.0,27.0,-100.00,WNW,293,3.0,5.0,73,0.00,,,0.05,78.000000,,2013-01-07 14:13:00,
2013-01-07 09:22:00,35.0,27.0,-100.00,WNW,293,3.0,5.0,73,0.00,,,0.05,78.000000,,2013-01-07 14:22:00,
2013-01-07 09:53:00,40.0,29.0,-100.00,NW,324,5.0,8.0,65,0.00,,,0.01,214.000000,,2013-01-07 14:53:00,
2013-01-07 10:03:00,40.0,29.0,-100.00,NW,324,5.0,8.0,65,0.00,,,0.01,214.000000,,2013-01-07 15:03:00,
2013-01-07 10:12:00,40.0,29.0,-100.00,NW,324,5.0,8.0,65,0.00,,,0.01,214.000000,,2013-01-07 15:12:00,
2013-01-07 10:23:00,40.0,29.0,-100.00,NW,324,5.0,8.0,65,0.00,,,0.01,214.000000,,2013-01-07 15:23:00,
2013-01-07 10:53:00,43.0,28.0,-100.00,NW,320,8.0,14.0,56,0.00,,,0.00,316.000000,,2013-01-07 15:53:00,
2013-01-07 11:03:00,43.0,28.0,-100.00,NW,320,8.0,14.0,56,0.00,,,0.00,316.000000,,2013-01-07 16:03:00,
2013-01-07 11:12:00,43.0,28.0,-100.00,NW,320,8.0,14.0,56,0.00,,,0.00,316.000000,,2013-01-07 16:12:00,
2013-01-07 11:23:00,43.0,28.0,-100.00,NW,320,8.0,14.0,56,0.00,,,0.00,316.000000,,2013-01-07 16:23:00,
2013-01-07 11:53:00,44.0,28.0,-100.00,NNW,327,8.0,18.0,53,0.00,,,0.00,382.000000,,2013-01-07 16:53:00,
2013-01-07 12:03:00,44.0,28.0,-100.00,NNW,327,8.0,18.0,53,0.00,,,0.00,382.000000,,2013-01-07 17:03:00,
2013-01-07 12:12:00,44.0,28.0,-100.00,NNW,327,8.0,18.0,53,0.00,,,0.00,382.000000,,2013-01-07 17:12:00,
2013-01-07 12:23:00,44.0,28.0,-100.00,NNW,327,8.0,18.0,53,0.00,,,0.00,382.000000,,2013-01-07 17:23:00,
2013-01-07 12:53:00,43.0,26.0,-100.00,North,355,8.0,15.0,51,0.00,,,0.00,387.000000,,2013-01-07 17:53:00,
2013-01-07 13:03:00,43.0,26.0,-100.00,North,355,8.0,15.0,51,0.00,,,0.00,387.000000,,2013-01-07 18:03:00,
2013-01-07 13:13:00,43.0,26.0,-100.00,North,355,8.0,15.0,51,0.00,,,0.00,387.000000,,2013-01-07 18:13:00,
2013-01-07 13:23:00,43.0,26.0,-100.00,North,355,8.0,15.0,51,0.00,,,0.00,387.000000,,2013-01-07 18:23:00,
2013-01-07 13:53:00,44.0,22.0,-100.00,North,1,8.0,18.0,42,0.00,,,0.00,410.000000,,2013-01-07 18:53:00,
2013-01-07 14:03:00,44.0,22.0,-100.00,North,1,8.0,18.0,42,0.00,,,0.00,410.000000,,2013-01-07 19:03:00,
2013-01-07 14:12:00,44.0,22.0,-100.00,North,1,8.0,18.0,42,0.00,,,0.00,410.000000,,2013-01-07 19:12:00,
2013-01-07 14:23:00,44.0,22.0,-100.00,North,1,8.0,18.0,42,0.00,,,0.00,410.000000,,2013-01-07 19:23:00,
2013-01-07 14:53:00,44.0,20.0,-100.00,NNE,14,7.0,14.0,38,0.00,,,0.00,346.000000,,2013-01-07 19:53:00,
2013-01-07 15:03:00,44.0,20.0,-100.00,NNE,14,7.0,14.0,38,0.00,,,0.00,346.000000,,2013-01-07 20:03:00,
2013-01-07 15:13:00,44.0,20.0,-100.00,NNE,14,7.0,14.0,38,0.00,,,0.00,346.000000,,2013-01-07 20:13:00,
2013-01-07 15:23:00,44.0,20.0,-100.00,NNE,14,7.0,14.0,38,0.00,,,0.00,346.000000,,2013-01-07 20:23:00,
2013-01-07 15:53:00,45.0,20.0,-100.00,NNW,338,3.0,10.0,37,0.00,,,0.00,232.000000,,2013-01-07 20:53:00,
2013-01-07 16:03:00,45.0,20.0,-100.00,NNW,338,3.0,10.0,37,0.00,,,0.00,232.000000,,2013-01-07 21:03:00,
2013-01-07 16:12:00,45.0,20.0,-100.00,NNW,338,3.0,10.0,37,0.00,,,0.00,232.000000,,2013-01-07 21:12:00,
2013-01-07 16:23:00,45.0,20.0,-100.00,NNW,338,3.0,10.0,37,0.00,,,0.00,232.000000,,2013-01-07 21:23:00,
2013-01-07 16:53:00,41.0,18.0,-100.00,NW,313,1.0,7.0,39,0.00,,,0.00,86.000000,,2013-01-07 21:53:00,
2013-01-07 17:03:00,41.0,18.0,-100.00,NW,313,1.0,7.0,39,0.00,,,0.00,86.000000,,2013-01-07 22:03:00,
2013-01-07 17:12:00,41.0,18.0,-100.00,NW,313,1.0,7.0,39,0.00,,,0.00,86.000000,,2013-01-07 22:12:00,
2013-01-07 17:23:00,41.0,18.0,-100.00,NW,313,1.0,7.0,39,0.00,,,0.00,86.000000,,2013-01-07 22:23:00,
2013-01-07 17:53:00,34.0,18.0,-100.00,NNW,346,2.0,3.0,51,0.00,,,0.00,3.000000,,2013-01-07 22:53:00,
2013-01-07 18:03:00,34.0,18.0,-100.00,NNW,346,2.0,3.0,51,0.00,,,0.00,3.000000,,2013-01-07 23:03:00,
2013-01-07 18:12:00,34.0,18.0,-100.00,NNW,346,2.0,3.0,51,0.00,,,0.00,3.000000,,2013-01-07 23:12:00,
2013-01-07 18:23:00,34.0,18.0,-100.00,NNW,346,2.0,3.0,51,0.00,,,0.00,3.000000,,2013-01-07 23:23:00,
2013-01-07 18:53:00,28.0,19.0,-100.00,North,9,0.0,5.0,68,0.00,,,0.00,1.000000,,2013-01-07 23:53:00,
2013-01-07 19:03:00,28.0,19.0,-100.00,North,9,0.0,5.0,68,0.00,,,0.00,1.000000,,2013-01-08 00:03:00,
2013-01-07 19:12:00,28.0,19.0,-100.00,North,9,0.0,5.0,68,0.00,,,0.00,1.000000,,2013-01-08 00:12:00,
2013-01-07 19:22:00,28.0,19.0,-100.00,North,9,0.0,5.0,68,0.00,,,0.00,1.000000,,2013-01-08 00:22:00,
2013-01-07 19:53:00,28.0,18.0,-100.00,NW,319,4.0,6.0,66,0.00,,,0.00,1.000000,,2013-01-08 00:53:00,
2013-01-07 20:03:00,28.0,18.0,-100.00,NW,319,4.0,6.0,66,0.00,,,0.00,1.000000,,2013-01-08 01:03:00,
2013-01-07 20:12:00,28.0,18.0,-100.00,NW,319,4.0,6.0,66,0.00,,,0.00,1.000000,,2013-01-08 01:12:00,
2013-01-07 20:22:00,28.0,18.0,-100.00,NW,319,4.0,6.0,66,0.00,,,0.00,1.000000,,2013-01-08 01:22:00,
2013-01-07 20:53:00,25.0,17.0,-100.00,NW,326,3.0,7.0,72,0.00,,,0.00,1.000000,,2013-01-08 01:53:00,
2013-01-07 21:02:00,25.0,17.0,-100.00,NW,326,3.0,7.0,72,0.00,,,0.00,1.000000,,2013-01-08 02:02:00,
2013-01-07 21:12:00,25.0,17.0,-100.00,NW,326,3.0,7.0,72,0.00,,,0.00,1.000000,,2013-01-08 02:12:00,
2013-01-07 21:22:00,25.0,17.0,-100.00,NW,326,3.0,7.0,72,0.00,,,0.00,1.000000,,2013-01-08 02:22:00,
2013-01-07 21:53:00,26.0,18.0,-100.00,NW,313,3.0,5.0,70,0.00,,,0.00,1.000000,,2013-01-08 02:53:00,
2013-01-07 22:03:00,26.0,18.0,-100.00,NW,313,3.0,5.0,70,0.00,,,0.00,1.000000,,2013-01-08 03:03:00,
2013-01-07 22:12:00,26.0,18.0,-100.00,NW,313,3.0,5.0,70,0.00,,,0.00,1.000000,,2013-01-08 03:12:00,
2013-01-07 22:22:00,26.0,18.0,-100.00,NW,313,3.0,5.0,70,0.00,,,0.00,1.000000,,2013-01-08 03:22:00,
2013-01-07 22:53:00,23.0,17.0,-100.00,NW,313,2.0,4.0,78,0.00,,,0.00,1.000000,,2013-01-08 03:53:00,
2013-01-07 23:02:00,23.0,17.0,-100.00,NW,313,2.0,4.0,78,0.00,,,0.00,1.000000,,2013-01-08 04:02:00,
2013-01-07 23:12:00,23.0,17.0,-100.00,NW,313,2.0,4.0,78,0.00,,,0.00,1.000000,,2013-01-08 04:12:00,
2013-01-07 23:22:00,23.0,17.0,-100.00,NW,313,2.0,4.0,78,0.00,,,0.00,1.000000,,2013-01-08 04:22:00,
2013-01-07 23:52:00,22.0,17.0,-100.00,NW,311,2.0,4.0,81,0.00,,,0.00,0.000000,,2013-01-08 04:52:00,